Flag for U.S.A. Weather past 2 weeks in Tulsa, Oklahoma, U.S.A.

Now
92 °F

Scattered clouds.


Feels Like: 96 °F
Forecast: 72 / 92 °F
Wind: 12 mph from South

Location: Tulsa International Airport

Current Time: Sep 3, 2015 at 4:49:31 PM

Latest Report: Sep 3, 2015 at 3:53 PM


Visibility: 10 mi

Pressure: 29.87 "Hg

Humidity: 46%

Dew point: 68 °F

Location of TulsaLocation

Historic Weather in Tulsa — Graph

°F

Tulsa temperature yesterday

Maximum temperature yesterday: 92 °F (at 4:53 PM)
Minimum temperature yesterday: 73 °F (at 6:53 AM)
Average temperature yesterday: 82 °F

Past Weeks' High & Low Weather Summary

 TemperatureHumidityPressure
High92 °F (Aug 31, 2:53 PM)100% (Aug 25, 6:53 AM)30.16 "Hg (Aug 25, 6:53 AM)
Low56 °F (Aug 20, 6:53 AM)27% (Aug 25, 3:53 PM)29.80 "Hg (Aug 22, 4:53 PM)
Average76 °F72%29.98 "Hg
* Reported Aug 19 2:53 PM — Sep 3 2:53 PM, Tulsa, Weather by CustomWeather, © 2015

Note: Actual official high and low records may vary slightly from our data, if they occured in-between our weather recording intervals... More about our weather records

Advertising

Tulsa weather history for previous 24 hours

 ConditionsComfort  
Time TempWeatherWind HumidityBarometerVisibility
2:53 PM
Thu, Sep 3
91 °FScattered clouds.12 mph49%29.89 "Hg10 mi
1:53 PM90 °FScattered clouds.9 mph48%29.91 "Hg10 mi
12:53 PM87 °FScattered clouds.10 mph55%29.93 "Hg10 mi
11:53 AM88 °FScattered clouds.10 mph54%29.95 "Hg10 mi
10:53 AM83 °FPartly sunny.10 mph63%29.96 "Hg10 mi
9:53 AM80 °FPartly sunny.12 mph67%29.96 "Hg10 mi
8:53 AM78 °FPartly sunny.9 mph74%29.96 "Hg10 mi
7:53 AM74 °FPassing clouds.6 mph85%29.95 "Hg10 mi
6:53 AM70 °FPassing clouds.5 mph90%29.94 "Hg10 mi
5:53 AM73 °FPassing clouds.8 mph84%29.92 "Hg10 mi
4:53 AM72 °FPassing clouds.6 mph84%29.91 "Hg10 mi
3:53 AM76 °FPassing clouds.8 mph74%29.91 "Hg10 mi
2:53 AM76 °FPassing clouds.6 mph77%29.90 "Hg10 mi
1:53 AM75 °FPassing clouds.6 mph82%29.91 "Hg10 mi
12:53 AM74 °FPassing clouds.5 mph88%29.91 "Hg10 mi
11:53 PM
Wed, Sep 2
77 °FPassing clouds.3 mph77%29.91 "Hg10 mi
10:53 PM79 °FPassing clouds.6 mph72%29.92 "Hg10 mi
9:53 PM79 °FPassing clouds.7 mph72%29.92 "Hg10 mi
8:53 PM80 °FPassing clouds.6 mph69%29.90 "Hg10 mi
7:53 PM86 °FSunny.5 mph53%29.89 "Hg10 mi
6:53 PM89 °FSunny.15 mph50%29.89 "Hg10 mi
5:53 PM91 °FPassing clouds.13 mph47%29.90 "Hg10 mi
4:53 PM92 °FScattered clouds.15 mph46%29.90 "Hg10 mi
Weather by CustomWeather, © 2015

See weather overviewHow to use our weather pages